SBIRS GEO-5 (USA 315)

Last updated on Sun Jun 21 2026 00:03:08 GMT+0000 (Coordinated Universal Time)

1 48618U 21042A 26171.41057205 -.00000275 00000+0 00000+0 0 9990 2 48618 5.0991 329.1630 0001463 120.1566 60.9118 1.00271391 18808
UTC large
Height (km)
Speed (km/s)
/
Latitude / Longitude
Inclination (degrees)
Orbital Period (minutes)
Azimuth
Elevation
Range (km)
Doppler Factor

Next 0 passes for location: London (51.5072 / 0.1276)

No passes found over London.
SBIRS GEO-5 (USA 315)